Regional Weather Roundup
Issued by NWS

Home | Current Version | Previous Version | Graphics & Text | Print | Product List | Glossary On
Versions: 1 2 3 4 5 6 7 8 9 10 11 12 13 14 15 16 17 18 19 20 21 22 23 24 25 26 27 28 29 30 31 32 33 34 35 36 37 38 39 40 41 42 43 44 45 46 47 48 49 50
000
ASUS45 KBOU 020607
RWRCO

WEATHER ROUNDUP FOR COLORADO
NATIONAL WEATHER SERVICE DENVER/BOULDER CO
1200 AM MDT TUE JUN 02 2015

NOTE: "FAIR" INDICATES FEW OR NO CLOUDS BELOW 12000 FEET WITH NO
SIGNIFICANT WEATHER AND/OR OBSTRUCTIONS TO VISIBILITY.

COZ001>005-013-030-031-020700-
...NORTHWEST COLORADO...

CITY           SKY/WX    TMP DP  RH WIND       PRES   REMARKS
CRAIG          CLEAR     52  44  74 CALM      30.01S
HAYDEN         CLEAR     57  41  54 NE7       30.03F
MEEKER         PTCLDY    55  41  59 NE8       30.02F
MOUNT WERNER   NOT AVBL
STEAMBOAT SPGS CLEAR     53  42  65 CALM      30.07S
WALDEN         PTCLDY    50  37  62 E6        30.16F
$$

COZ006>008-011-020700-
...WEST CENTRAL VALLEYS...

CITY           SKY/WX    TMP DP  RH WIND       PRES   REMARKS
GRAND JUNCTION CLEAR     64  30  27 NE7       29.92R
MONTROSE       CLEAR     65  34  31 SE10      30.04S
EAGLE          PTCLDY    68  52  56 E8        30.10R
RIFLE          CLEAR     59  40  49 VRB3      29.98S
DELTA          CLEAR     63  37  37 N8        29.98S
NUCLA          CLEAR     61  27  27 E6        30.08S
$$

COZ017>023-064>068-020700-
...SOUTHWEST COLORADO...

CITY           SKY/WX    TMP DP  RH WIND       PRES   REMARKS
DURANGO        PTCLDY    56  39  53 N8        30.16R
CORTEZ         CLEAR     68  19  15 S12       30.08S
PAGOSA SPRINGS PTCLDY    57  40  52 CALM      30.25R
TELLURIDE      PTCLDY    56  30  37 E3        30.33S
WOLF CREEK PAS NOT AVBL
$$

COZ009-010-012-014-032>034-037-058>063-020700-
...CENTRAL COLORADO...

CITY           SKY/WX    TMP DP  RH WIND       PRES   REMARKS
ASPEN          PTCLDY    55  36  48 SW8       30.16F
BUENA VISTA    PTCLDY    51  36  57 W7        30.25R
COPPER MTN     PTCLDY    46  28  49 S21       30.48S
BERTHOUD PASS  FAIR      41  32  70 W17G24    30.52S
COTTONWOOD PAS NOT AVBL
GUNNISON       PTCLDY    52  37  58 CALM      30.25S
KREMMLING      PTCLDY    54  39  58 CALM      30.16S
LEADVILLE      PTCLDY    42  30  62 CALM      30.33F
MONARCH PASS   MOCLDY    43  32  65 S17       30.60F
SALIDA         PTCLDY    57  39  50 W6        30.29S
SUNLIGHT       CLEAR     50  27  40 CALM      30.38F
WILKERSON PASS PTCLDY    45  32  61 SW8       30.47F
$$

COZ069>075-020700-
...SAN LUIS VALLEY/SANGRE DE CRISTO MOUNTAINS...

CITY           SKY/WX    TMP DP  RH WIND       PRES   REMARKS
ALAMOSA        MOCLDY    54  42  64 S9        30.24R
LA VETA PASS   PTCLDY   N/A N/A N/A MISG      30.41F
SAGUACHE       MOCLDY    50  41  71 NW8       30.26S
$$

COZ035-036-038>040-020700-
...NORTHERN COLORADO FRONT RANGE...

CITY           SKY/WX    TMP DP  RH WIND       PRES   REMARKS
DENVER INTL AP PTCLDY    65  47  52 SW14      30.00F
DMNS CITY PARK NOT AVBL
AURORA         MOCLDY    65  46  49 S21G33    30.01F
FRONT RANGE AP PTCLDY    66  48  52 S15G21    30.01F
ERIE MUNI ARPT PTCLDY    62  48  58 CALM      29.99F
BOULDER MUN AP PTCLDY    63  46  55 CALM      29.98F
CENTENNIAL     PTCLDY    65  46  50 S14       30.03F
BROOMFIELD     PTCLDY    64  45  48 SE5       30.02F
FORT COLLINS   PTCLDY    59  50  72 S10       30.00S
LONGMONT       PTCLDY    77  38  24 E8G36     29.96F
$$

COZ041-046-047-076>085-087-088-020700-
...PIKES PEAK/PALMER DIVIDE AND SOUTHERN FOOTHILLS...

CITY           SKY/WX    TMP DP  RH WIND       PRES   REMARKS
COLO. SPRINGS  MOCLDY    61  46  57 S3        30.14F
A. F. ACADEMY  PTCLDY    61  43  50 S8        30.13F
ELLICOTT       MOCLDY     1 N/A N/A W8        30.12F WCI -13
FALCON         MOCLDY    56  46  69 SW9       30.18F
FORT CARSON    NOT AVBL
LIMON          CLOUDY    61  49  64 SW10G21   30.04F
MONUMENT HILL  PTCLDY    55  43  62 MISG      30.14F
TRINIDAD       CLEAR     65  45  48 E3        30.13F
$$

COZ042>045-048>051-090-091-020700-
...NORTHEAST COLORADO...

CITY           SKY/WX    TMP DP  RH WIND       PRES   REMARKS
GREELEY ARPT   PTCLDY    61  54  77 E9        29.99S
AKRON          CLOUDY    61  58  90 E9        29.98F
BURLINGTON     MOCLDY    67  55  65 S16       29.98F
WRAY           TSTM      64  64 100 E21       29.99F
STERLING       CLOUDY    61  55  82 E5        29.96F
HOLYOKE        NOT AVBL
FORT MORGAN    CLOUDY    61 -17   4 E10       29.99F
$$

COZ086-089-092>099-020700-
...SOUTHEAST COLORADO...

CITY           SKY/WX    TMP DP  RH WIND       PRES   REMARKS
PUEBLO         PTCLDY    58  53  84 W5        30.04F
LA JUNTA       MOCLDY    67  50  54 MISG      29.99F
LAMAR          CLOUDY    67  55  65 SE12      29.96F
SPRINGFIELD      N/A     61  54  77 SW6       30.04F
$$


USA.gov is the U.S. government's official web portal to all federal, state and local government web resources and services.